Language: 


Des rapports , des résumés tant et plus, au choix de chacun....


Données statistiques de la station
Quotidien Rapport Septembre 6, 2017 Unités:  Anglais    Métrique   les deux
« Précédent Jour
Suivant Jour »
Quotidien Hebdomadaire Mensuel Annuel Actuel
  Haut: Bas: Moyen:
Température: 69.8 °F 32 °F 62.6 °F
Pt de rosée: 62.6 °F 44.6 °F 54.9 °F
Humidité: 97 % 0 % 77 %
Vitesse du vent: 13.6 mph 0 mph 5.5 mph
Rafales: 17 mph - -
Vent:- - West
Pression: 30.1 in 29.9 in -
Précipitation: 0.02 in    
Historical Graphs
 
 
Données statistiques pour Septembre 6, 2017
Heure Température Point de rosée Pression Vent Vitesse du vent Refales Humidité Pluie (taux horaire)
00:03 64 °F 62.6 °F 29.9 in WSW 6 mph 10.5 mph 96 % 0 in
00:08 64 °F 62.6 °F 29.9 in WSW 4.3 mph 10.5 mph 96 % 0 in
00:13 64 °F 62.6 °F 29.9 in SW 1.6 mph 6.5 mph 96 % 0 in
00:18 64 °F 62.6 °F 29.9 in WSW 5.6 mph 6.5 mph 96 % 0 in
00:23 64 °F 62.6 °F 29.9 in West 5.6 mph 10.5 mph 96 % 0 in
00:28 64 °F 62.6 °F 29.9 in SW 7.8 mph 10.5 mph 96 % 0 in
00:33 64 °F 62.6 °F 29.9 in SW 9.2 mph 9.6 mph 97 % 0 in
00:38 64 °F 62.6 °F 29.9 in SW 9.2 mph 9.6 mph 97 % 0.01 in
00:43 63.7 °F 62.6 °F 29.9 in WSW 7.2 mph 9.2 mph 97 % 0.02 in
00:49 63.7 °F 62.6 °F 29.9 in WSW 7.6 mph 9.2 mph 97 % 0.02 in
00:54 63.5 °F 62.6 °F 29.9 in West 6 mph 7.6 mph 97 % 0.02 in
00:59 63.5 °F 62.6 °F 29.9 in West 8.7 mph 8.7 mph 97 % 0.02 in
01:04 63.5 °F 62.6 °F 29.9 in WSW 4.9 mph 8.7 mph 97 % 0.02 in
01:09 63.5 °F 62.6 °F 29.9 in SSW 3.8 mph 7.2 mph 97 % 0.02 in
01:14 63.5 °F 62.6 °F 29.9 in WSW 8.1 mph 9.6 mph 97 % 0.02 in
01:19 63.5 °F 62.6 °F 29.9 in SW 4.9 mph 9.6 mph 97 % 0.02 in
01:24 63.5 °F 62.6 °F 29.9 in SW 5.6 mph 6.7 mph 97 % 0.02 in
01:29 63.5 °F 62.6 °F 29.9 in WSW 5.4 mph 5.8 mph 97 % 0.02 in
01:34 63.5 °F 62.6 °F 29.9 in WSW 8.5 mph 8.5 mph 97 % 0.02 in
01:39 63.5 °F 62.6 °F 29.9 in West 6.5 mph 8.5 mph 97 % 0.01 in
01:44 63.3 °F 62.6 °F 29.9 in WSW 6.5 mph 8.5 mph 97 % 0 in
01:49 63.3 °F 62.6 °F 29.9 in WSW 7.2 mph 7.2 mph 97 % 0 in
01:54 63.3 °F 62.6 °F 29.9 in WSW 6.7 mph 7.2 mph 97 % 0 in
01:59 63.3 °F 62.6 °F 29.9 in WSW 4.9 mph 7.4 mph 97 % 0 in
02:05 63.3 °F 62.6 °F 29.9 in WSW 3.8 mph 10.5 mph 97 % 0 in
02:10 63.3 °F 62.6 °F 29.9 in South 3.8 mph 10.5 mph 97 % 0 in
02:13 63.5 °F 62.6 °F 29.9 in West 6.3 mph 7.4 mph 97 % 0 in
02:18 63.5 °F 62.6 °F 29.9 in West 2 mph 7.4 mph 97 % 0 in
02:23 63.5 °F 62.6 °F 29.9 in WSW 8.7 mph 9.2 mph 97 % 0 in
02:28 63.5 °F 62.6 °F 29.9 in West 6 mph 10.5 mph 97 % 0 in
02:33 63.5 °F 62.6 °F 29.9 in WSW 6.3 mph 10.5 mph 97 % 0 in
02:38 63.7 °F 62.6 °F 29.9 in West 10.7 mph 10.7 mph 97 % 0 in
02:43 63.7 °F 62.6 °F 29.9 in West 9.8 mph 10.7 mph 97 % 0 in
02:48 63.7 °F 62.6 °F 29.9 in WSW 8.1 mph 9.8 mph 97 % 0 in
02:53 63.7 °F 62.6 °F 29.9 in WSW 5.4 mph 9.8 mph 97 % 0 in
02:58 63.9 °F 62.6 °F 29.9 in West 4 mph 8.7 mph 97 % 0 in
03:03 32 °F 62.6 °F 30 in West 6.5 mph 8.7 mph 0 % 0 in
03:08 63.9 °F 62.6 °F 30 in WSW 7.8 mph 8.7 mph 97 % 0 in
03:13 63.9 °F 62.6 °F 30 in West 7.2 mph 8.7 mph 97 % 0 in
03:18 63.9 °F 62.6 °F 30 in West 8.1 mph 11.4 mph 97 % 0 in
03:23 63.9 °F 62.6 °F 30 in West 8.7 mph 11.4 mph 97 % 0 in
03:25 64 °F 62.6 °F 30 in SW 10.3 mph 11.4 mph 97 % 0 in
03:30 64 °F 62.6 °F 30 in West 6.5 mph 11.4 mph 97 % 0 in
03:35 64 °F 62.6 °F 30 in WNW 6 mph 14.5 mph 97 % 0 in
03:40 63.9 °F 62.6 °F 30 in West 7.6 mph 14.5 mph 96 % 0 in
03:45 63.7 °F 62.6 °F 29.9 in West 10.5 mph 10.5 mph 96 % 0 in
03:50 63.5 °F 62.6 °F 29.9 in WSW 5.8 mph 12.3 mph 96 % 0 in
03:55 63.5 °F 62.6 °F 29.9 in WNW 6.5 mph 12.3 mph 96 % 0 in
04:00 63 °F 62.6 °F 30 in WNW 3.8 mph 12.1 mph 95 % 0 in
04:05 63 °F 62.6 °F 30 in West 7.8 mph 10.7 mph 95 % 0 in
04:10 62.6 °F 60.8 °F 30 in West 10.5 mph 10.7 mph 95 % 0 in
04:15 62.6 °F 60.8 °F 30 in WSW 5.8 mph 12.5 mph 95 % 0 in
04:20 62.2 °F 60.8 °F 30 in WNW 5.6 mph 12.5 mph 95 % 0 in
04:25 62.2 °F 60.8 °F 30 in WNW 3.6 mph 10.5 mph 95 % 0 in
04:30 61.9 °F 60.8 °F 30 in WSW 10.7 mph 10.7 mph 94 % 0 in
04:35 61.7 °F 60.8 °F 30 in West 3.6 mph 10.7 mph 93 % 0 in
04:40 61.2 °F 59 °F 30 in West 6.3 mph 10.7 mph 93 % 0 in
04:45 60.8 °F 59 °F 30 in NW 3.8 mph 8.9 mph 93 % 0 in
04:50 60.4 °F 59 °F 30 in WNW 5.6 mph 8.5 mph 93 % 0 in
04:55 60.3 °F 59 °F 30 in West 4.9 mph 8.1 mph 93 % 0 in
05:00 60.3 °F 59 °F 30 in WNW 4 mph 9.6 mph 93 % 0 in
05:05 60.1 °F 59 °F 30 in West 7.8 mph 9.6 mph 93 % 0 in
05:10 59.9 °F 57.2 °F 30 in WNW 2.5 mph 8.1 mph 92 % 0 in
05:15 59.9 °F 57.2 °F 30 in West 7.8 mph 8.7 mph 92 % 0 in
05:21 59.4 °F 57.2 °F 30 in WNW 5.8 mph 10.1 mph 92 % 0 in
05:26 59.4 °F 57.2 °F 30 in West 5.8 mph 11 mph 92 % 0 in
05:31 59 °F 57.2 °F 30 in West 4.9 mph 11 mph 93 % 0 in
05:36 58.6 °F 57.2 °F 30 in West 4.9 mph 7.4 mph 93 % 0 in
05:41 58.5 °F 57.2 °F 30 in West 6 mph 8.1 mph 93 % 0 in
05:46 58.5 °F 57.2 °F 30 in West 3.8 mph 8.1 mph 93 % 0 in
05:51 58.1 °F 57.2 °F 30 in West 3.8 mph 6.3 mph 94 % 0 in
05:56 58.1 °F 57.2 °F 30 in West 2.9 mph 6.3 mph 94 % 0 in
06:01 57.9 °F 55.4 °F 30 in West 7.4 mph 7.4 mph 94 % 0 in
06:06 57.7 °F 55.4 °F 30 in WSW 4.7 mph 7.4 mph 94 % 0 in
06:11 57.7 °F 55.4 °F 30 in West 6 mph 7.4 mph 94 % 0 in
06:16 57.6 °F 55.4 °F 30.1 in West 6 mph 6.7 mph 94 % 0 in
06:21 57.6 °F 55.4 °F 30.1 in WSW 6.7 mph 6.7 mph 94 % 0 in
06:26 57.6 °F 55.4 °F 30.1 in WSW 4.9 mph 6.7 mph 94 % 0 in
06:31 57.2 °F 55.4 °F 30 in WSW 4.3 mph 6.3 mph 94 % 0 in
06:32 57.2 °F 55.4 °F 30 in WSW 4.3 mph 6.3 mph 94 % 0 in
06:37 57 °F 55.4 °F 30 in WSW 4.9 mph 7.4 mph 95 % 0 in
06:42 57 °F 55.4 °F 30 in Calm   7.4 mph 95 % 0 in
06:47 56.7 °F 55.4 °F 30 in West 5.6 mph 5.6 mph 95 % 0 in
06:52 56.3 °F 55.4 °F 30 in WSW 5.8 mph 5.8 mph 95 % 0 in
06:57 56.3 °F 55.4 °F 30 in Calm   5.8 mph 95 % 0 in
07:02 56.1 °F 55.4 °F 30 in West 3.4 mph 5.8 mph 96 % 0 in
07:07 56.1 °F 55.4 °F 30 in West 2.2 mph 4.9 mph 96 % 0 in
07:12 55.9 °F 55.4 °F 30 in West 4.7 mph 4.9 mph 96 % 0 in
07:17 55.8 °F 55.4 °F 30 in West 3.6 mph 4.9 mph 96 % 0 in
07:22 55.8 °F 55.4 °F 30 in Calm   5.8 mph 96 % 0 in
07:27 55.8 °F 55.4 °F 30 in WSW 6.5 mph 6.5 mph 97 % 0 in
07:32 55.8 °F 55.4 °F 30 in West 4 mph 6.5 mph 97 % 0 in
07:37 55.8 °F 55.4 °F 30 in WSW 2.5 mph 6.7 mph 97 % 0 in
07:39 55.8 °F 55.4 °F 30 in West 7.2 mph 7.2 mph 97 % 0 in
07:44 55.9 °F 55.4 °F 30 in West 4.9 mph 7.2 mph 97 % 0 in
07:49 56.1 °F 55.4 °F 30 in WSW 4 mph 7.6 mph 97 % 0 in
07:54 56.1 °F 55.4 °F 30 in West 2.7 mph 7.8 mph 97 % 0 in
07:59 56.7 °F 55.4 °F 30 in WSW 6 mph 8.5 mph 97 % 0 in
08:04 56.7 °F 55.4 °F 30.1 in West 5.6 mph 8.5 mph 97 % 0 in
08:09 56.8 °F 55.4 °F 30.1 in WSW 1.1 mph 7.8 mph 97 % 0 in
08:14 57.2 °F 57.2 °F 30.1 in West 4.9 mph 7.4 mph 96 % 0 in
08:19 57.4 °F 57.2 °F 30.1 in WSW 5.4 mph 7.4 mph 96 % 0 in
08:24 57.7 °F 57.2 °F 30.1 in West 6.9 mph 7.2 mph 96 % 0 in
08:29 57.9 °F 57.2 °F 30.1 in West 7.4 mph 7.6 mph 96 % 0 in
08:34 58.1 °F 57.2 °F 30.1 in WSW 7.4 mph 7.6 mph 95 % 0 in
08:35 58.1 °F 57.2 °F 30.1 in West 6 mph 7.6 mph 95 % 0 in
08:40 58.1 °F 57.2 °F 30.1 in WSW 4.9 mph 7.4 mph 95 % 0 in
08:45 58.8 °F 57.2 °F 30.1 in West 2.9 mph 7.6 mph 94 % 0 in
08:50 59.2 °F 57.2 °F 30.1 in West 6 mph 7.8 mph 94 % 0 in
08:55 59.2 °F 57.2 °F 30.1 in West 3.6 mph 7.8 mph 94 % 0 in
09:00 59.7 °F 57.2 °F 30.1 in West 8.1 mph 8.1 mph 93 % 0 in
09:05 59.9 °F 57.2 °F 30.1 in WSW 7.8 mph 10.1 mph 92 % 0 in
09:10 59.9 °F 57.2 °F 30.1 in WSW 6.5 mph 10.1 mph 92 % 0 in
09:15 60.4 °F 57.2 °F 30.1 in West 9.2 mph 9.2 mph 91 % 0 in
09:20 60.6 °F 57.2 °F 30.1 in West 8.7 mph 9.2 mph 90 % 0 in
09:25 61 °F 57.2 °F 30.1 in West 8.7 mph 8.9 mph 89 % 0 in
09:30 61.2 °F 59 °F 30.1 in SSW 6.5 mph 8.9 mph 89 % 0 in
09:35 61.2 °F 59 °F 30.1 in WNW 5.8 mph 11.2 mph 89 % 0 in
09:40 62.1 °F 57.2 °F 30.1 in West 8.7 mph 11.2 mph 85 % 0 in
09:45 62.6 °F 57.2 °F 30.1 in West 4.3 mph 11 mph 84 % 0 in
09:50 63.1 °F 57.2 °F 30.1 in West 10.7 mph 12.8 mph 82 % 0 in
09:55 63 °F 57.2 °F 30.1 in West 11.9 mph 12.8 mph 81 % 0 in
10:00 62.6 °F 57.2 °F 30.1 in West 11.9 mph 12.8 mph 80 % 0 in
10:05 62.6 °F 57.2 °F 30.1 in WSW 9.2 mph 12.5 mph 80 % 0 in
10:11 62.2 °F 55.4 °F 30.1 in West 7.4 mph 12.5 mph 78 % 0 in
10:16 62.2 °F 55.4 °F 30.1 in West 5.8 mph 12.1 mph 78 % 0 in
10:21 62.2 °F 55.4 °F 30.1 in West 7.6 mph 11.9 mph 78 % 0 in
10:26 62.4 °F 55.4 °F 30.1 in West 8.7 mph 11.9 mph 79 % 0 in
10:31 62.4 °F 55.4 °F 30.1 in West 7.2 mph 8.7 mph 77 % 0 in
10:36 62.6 °F 55.4 °F 30.1 in West 5.4 mph 8.7 mph 78 % 0 in
10:41 62.6 °F 55.4 °F 30.1 in SSW 7.2 mph 8.5 mph 77 % 0 in
10:46 62.8 °F 55.4 °F 30.1 in WSW 6.3 mph 8.5 mph 79 % 0 in
10:51 62.8 °F 55.4 °F 30.1 in West 6.5 mph 8.1 mph 79 % 0 in
10:56 62.8 °F 55.4 °F 30.1 in WSW 8.1 mph 10.1 mph 79 % 0 in
11:01 62.8 °F 55.4 °F 30.1 in WNW 7.8 mph 10.1 mph 79 % 0 in
11:06 62.6 °F 55.4 °F 30.1 in West 5.6 mph 8.7 mph 79 % 0 in
11:11 62.6 °F 55.4 °F 30.1 in West 6.5 mph 10.3 mph 79 % 0 in
11:16 62.6 °F 55.4 °F 30.1 in West 6 mph 13.4 mph 79 % 0 in
11:21 62.1 °F 55.4 °F 30.1 in SSW 4.9 mph 13.4 mph 79 % 0 in
11:26 62.1 °F 55.4 °F 30.1 in West 2.9 mph 10.3 mph 79 % 0 in
11:31 62.8 °F 55.4 °F 30.1 in West 5.4 mph 8.1 mph 79 % 0 in
11:36 63.1 °F 57.2 °F 30.1 in West 6.3 mph 13.2 mph 79 % 0 in
11:41 63.3 °F 55.4 °F 30.1 in NW 9.8 mph 13.2 mph 78 % 0 in
11:46 63.9 °F 55.4 °F 30.1 in West 4.3 mph 10.7 mph 76 % 0 in
11:51 64 °F 55.4 °F 30.1 in West 9.6 mph 10.7 mph 76 % 0 in
11:56 64 °F 55.4 °F 30.1 in West 5.6 mph 9.6 mph 76 % 0 in
12:01 64 °F 55.4 °F 30.1 in WSW 6 mph 9.6 mph 76 % 0 in
12:06 64 °F 55.4 °F 30.1 in WNW 10.1 mph 14.3 mph 76 % 0 in
12:11 64.4 °F 55.4 °F 30.1 in NW 6 mph 14.3 mph 72 % 0 in
12:16 64 °F 55.4 °F 30.1 in West 4.3 mph 10.5 mph 72 % 0 in
12:22 64 °F 55.4 °F 30.1 in WNW 5.6 mph 10.5 mph 72 % 0 in
12:27 64.6 °F 55.4 °F 30.1 in West 7.6 mph 9.6 mph 70 % 0 in
12:32 65.3 °F 55.4 °F 30.1 in WNW 5.6 mph 8.7 mph 69 % 0 in
12:37 65.7 °F 55.4 °F 30.1 in WNW 5.4 mph 12.3 mph 68 % 0 in
12:42 65.7 °F 55.4 °F 30.1 in WNW 3.4 mph 12.3 mph 68 % 0 in
12:47 67.5 °F 55.4 °F 30.1 in West 5.4 mph 7.2 mph 64 % 0 in
12:52 66 °F 53.6 °F 30.1 in West 9.8 mph 12.1 mph 64 % 0 in
12:57 65.7 °F 53.6 °F 30.1 in WNW 6 mph 12.1 mph 65 % 0 in
13:02 65.7 °F 53.6 °F 30.1 in WSW 7.4 mph 12.1 mph 65 % 0 in
13:07 64.8 °F 53.6 °F 30.1 in West 3.4 mph 8.1 mph 66 % 0 in
13:12 64.8 °F 53.6 °F 30.1 in NNW 11.4 mph 11.4 mph 66 % 0 in
13:17 64.4 °F 50 °F 30.1 in West 5.8 mph 11.4 mph 60 % 0 in
13:22 64.6 °F 51.8 °F 30.1 in WNW 4.9 mph 7.8 mph 62 % 0 in
13:27 64.6 °F 51.8 °F 30.1 in West 11 mph 12.3 mph 62 % 0 in
13:32 66 °F 53.6 °F 30.1 in WNW 6.3 mph 12.3 mph 64 % 0 in
13:37 66 °F 53.6 °F 30.1 in NW 6.3 mph 11 mph 64 % 0 in
13:42 66 °F 53.6 °F 30.1 in West 7.2 mph 10.3 mph 64 % 0 in
13:47 67.8 °F 53.6 °F 30.1 in West 7.4 mph 7.6 mph 61 % 0 in
13:52 67.8 °F 53.6 °F 30.1 in West 8.1 mph 8.5 mph 61 % 0 in
13:57 67.8 °F 53.6 °F 30.1 in WNW 6.3 mph 10.3 mph 61 % 0 in
14:02 66.2 °F 48.2 °F 30.1 in WNW 5.6 mph 10.3 mph 51 % 0 in
14:07 66.2 °F 48.2 °F 30.1 in West 3.6 mph 10.3 mph 51 % 0 in
14:12 66 °F 48.2 °F 30.1 in WNW 4.9 mph 7.8 mph 52 % 0 in
14:17 66 °F 48.2 °F 30.1 in West 5.4 mph 8.1 mph 53 % 0 in
14:22 66 °F 48.2 °F 30.1 in West 8.5 mph 10.5 mph 52 % 0 in
14:27 67.6 °F 50 °F 30.1 in West 5.8 mph 10.5 mph 55 % 0 in
14:32 67.6 °F 50 °F 30.1 in West 10.7 mph 12.1 mph 55 % 0 in
14:37 67.3 °F 50 °F 30.1 in West 10.1 mph 13.2 mph 55 % 0 in
14:43 66.7 °F 46.4 °F 30.1 in WSW 10.7 mph 15.4 mph 47 % 0 in
14:48 67.5 °F 48.2 °F 30.1 in West 9.6 mph 15.4 mph 48 % 0 in
14:53 67.5 °F 48.2 °F 30.1 in West 13.4 mph 17 mph 48 % 0 in
14:58 68.9 °F 48.2 °F 30.1 in NW 5.8 mph 17 mph 48 % 0 in
15:03 68.4 °F 48.2 °F 30.1 in WNW 12.8 mph 13.4 mph 47 % 0 in
15:08 68.4 °F 48.2 °F 30.1 in West 11.9 mph 13.6 mph 48 % 0 in
15:13 68 °F 46.4 °F 30.1 in West 3.6 mph 13.6 mph 46 % 0 in
15:14 68 °F 46.4 °F 30.1 in North 7.4 mph 13.6 mph 46 % 0 in
15:19 68.4 °F 48.2 °F 30.1 in West 10.5 mph 12.1 mph 46 % 0 in
15:24 69.6 °F 48.2 °F 30.1 in South 5.4 mph 14.5 mph 47 % 0 in
15:29 69.6 °F 48.2 °F 30.1 in West 5.8 mph 14.5 mph 47 % 0 in
15:34 69.6 °F 48.2 °F 30.1 in WNW 4.3 mph 13.2 mph 47 % 0 in
15:39 69.6 °F 48.2 °F 30.1 in West 10.5 mph 13.2 mph 47 % 0 in
15:44 68.9 °F 48.2 °F 30.1 in WNW 10.3 mph 13 mph 45 % 0 in
15:49 68.4 °F 46.4 °F 30.1 in West 13.6 mph 13.6 mph 44 % 0 in
15:54 68.7 °F 46.4 °F 30.1 in West 11 mph 13.6 mph 44 % 0 in
15:59 68.7 °F 46.4 °F 30.1 in WNW 4 mph 14.8 mph 44 % 0 in
16:05 69.6 °F 46.4 °F 30.1 in West 5.8 mph 14.8 mph 43 % 0 in
16:10 69.8 °F 48.2 °F 30.1 in WSW 4 mph 12.5 mph 44 % 0 in
16:15 69.8 °F 48.2 °F 30.1 in West 10.3 mph 12.5 mph 44 % 0 in
16:20 69.8 °F 46.4 °F 30.1 in West 6.5 mph 14.8 mph 43 % 0 in
16:25 69.6 °F 48.2 °F 30.1 in West 7.8 mph 14.8 mph 44 % 0 in
16:30 69.6 °F 48.2 °F 30.1 in NW 5.4 mph 13.6 mph 44 % 0 in
16:35 69.8 °F 48.2 °F 30.1 in West 8.7 mph 10.5 mph 44 % 0 in
16:40 69.3 °F 48.2 °F 30.1 in WNW 7.6 mph 11 mph 45 % 0 in
16:45 69.1 °F 46.4 °F 30.1 in WNW 4.7 mph 11 mph 43 % 0 in
16:50 69.3 °F 46.4 °F 30.1 in NW 4.5 mph 10.3 mph 43 % 0 in
16:55 68.9 °F 46.4 °F 30.1 in WNW 6 mph 10.3 mph 44 % 0 in
17:00 68.9 °F 46.4 °F 30.1 in West 6.5 mph 11 mph 44 % 0 in
17:05 68 °F 44.6 °F 30.1 in West 6.9 mph 11 mph 43 % 0 in
17:10 68 °F 44.6 °F 30.1 in NW 4.9 mph 12.1 mph 43 % 0 in
17:15 67.5 °F 46.4 °F 30.1 in West 8.7 mph 12.1 mph 45 % 0 in
17:20 67.5 °F 46.4 °F 30.1 in WNW 3.8 mph 12.1 mph 45 % 0 in
17:25 67.5 °F 46.4 °F 30.1 in WSW 7.4 mph 12.3 mph 45 % 0 in
17:30 69.1 °F 48.2 °F 30.1 in West 8.5 mph 12.3 mph 45 % 0 in
17:35 68.4 °F 46.4 °F 30.1 in West 8.7 mph 11 mph 45 % 0 in
17:40 68.4 °F 46.4 °F 30.1 in West 10.5 mph 11 mph 45 % 0 in
17:45 68.4 °F 46.4 °F 30.1 in NW 3.6 mph 10.5 mph 45 % 0 in
17:50 68.4 °F 46.4 °F 30.1 in WSW 10.1 mph 10.3 mph 45 % 0 in
17:55 66.6 °F 48.2 °F 30.1 in West 7.6 mph 11 mph 50 % 0 in
18:00 66.2 °F 48.2 °F 30.1 in West 6 mph 11 mph 51 % 0 in
18:05 66.2 °F 48.2 °F 30.1 in West 3.1 mph 7.6 mph 51 % 0 in
18:11 66.2 °F 48.2 °F 30.1 in WSW 8.5 mph 8.5 mph 51 % 0 in
18:16 66.2 °F 48.2 °F 30.1 in West 6.9 mph 8.7 mph 51 % 0 in
18:21 64.9 °F 48.2 °F 30.1 in West 4.3 mph 8.7 mph 55 % 0 in
18:26 64.9 °F 48.2 °F 30.1 in West 4.7 mph 7.2 mph 55 % 0 in
18:31 64.9 °F 48.2 °F 30.1 in West 7.2 mph 7.2 mph 55 % 0 in
18:36 64.9 °F 48.2 °F 30.1 in WSW 3.6 mph 7.2 mph 55 % 0 in
18:41 64.9 °F 48.2 °F 30.1 in West 2.7 mph 6.3 mph 55 % 0 in
18:46 64.9 °F 48.2 °F 30.1 in West 3.1 mph 8.1 mph 55 % 0 in
18:51 64.9 °F 48.2 °F 30.1 in West 3.6 mph 8.1 mph 55 % 0 in
18:56 64.9 °F 48.2 °F 30.1 in West 3.4 mph 8.1 mph 55 % 0 in
18:57 64.9 °F 48.2 °F 30.1 in West 3.8 mph 8.1 mph 55 % 0 in
19:02 64.9 °F 48.2 °F 30.1 in West 3.8 mph 8.1 mph 55 % 0 in
19:07 64.9 °F 48.2 °F 30.1 in WSW 5.4 mph 5.6 mph 55 % 0 in
19:12 63.9 °F 51.8 °F 30.1 in West 3.4 mph 8.1 mph 63 % 0 in
19:17 63.9 °F 51.8 °F 30.1 in WSW 5.8 mph 8.9 mph 63 % 0 in
19:22 63.7 °F 51.8 °F 30.1 in West 4 mph 8.9 mph 64 % 0 in
19:27 63.7 °F 51.8 °F 30.1 in WNW 6 mph 7.8 mph 64 % 0 in
19:32 63.7 °F 51.8 °F 30.1 in West 4.7 mph 7.6 mph 64 % 0 in
19:37 63.7 °F 51.8 °F 30.1 in West 4.3 mph 6.7 mph 64 % 0 in
19:42 63.7 °F 51.8 °F 30.1 in West 3.1 mph 5.6 mph 64 % 0 in
19:47 63 °F 51.8 °F 30.1 in Calm   6 mph 66 % 0 in
19:52 63 °F 51.8 °F 30.1 in WSW 2.9 mph 6 mph 66 % 0 in
19:57 63 °F 51.8 °F 30.1 in WSW 3.4 mph 6.5 mph 66 % 0 in
20:02 63 °F 51.8 °F 30.1 in WSW 5.4 mph 6.5 mph 66 % 0 in
20:07 62.4 °F 51.8 °F 30.1 in WSW 6.5 mph 6.7 mph 69 % 0 in
20:12 62.2 °F 51.8 °F 30.1 in West 4.7 mph 6.7 mph 69 % 0 in
20:13 62.2 °F 51.8 °F 30.1 in WSW 3.4 mph 6.7 mph 69 % 0 in
20:18 62.1 °F 51.8 °F 30.1 in Calm   5.8 mph 70 % 0 in
20:23 61.9 °F 51.8 °F 30.1 in SW 4.3 mph 4.3 mph 70 % 0 in
20:28 61.9 °F 51.8 °F 30.1 in WSW 4 mph 7.6 mph 70 % 0 in
20:33 61.9 °F 51.8 °F 30.1 in West 5.8 mph 7.6 mph 70 % 0 in
20:38 61.9 °F 51.8 °F 30.1 in West 4.9 mph 6.5 mph 70 % 0 in
20:39 61.9 °F 51.8 °F 30.1 in West 5.6 mph 6.5 mph 70 % 0 in
20:44 61.9 °F 51.8 °F 30.1 in WSW 4.3 mph 7.4 mph 70 % 0 in
20:49 61.9 °F 51.8 °F 30.1 in WSW 4 mph 7.4 mph 70 % 0 in
20:54 61.9 °F 51.8 °F 30.1 in Calm   6.3 mph 70 % 0 in
20:59 61.9 °F 51.8 °F 30.1 in SW 4 mph 6 mph 70 % 0 in
21:04 61.9 °F 51.8 °F 30.1 in Calm   5.8 mph 70 % 0 in
21:09 60.6 °F 53.6 °F 30.1 in West 2.5 mph 5.8 mph 77 % 0 in
21:14 60.4 °F 53.6 °F 30.1 in West 2.5 mph 5.4 mph 77 % 0 in
21:19 60.3 °F 53.6 °F 30.1 in WSW 2.5 mph 4.3 mph 77 % 0 in
21:24 59.4 °F 53.6 °F 30.1 in Calm   3.8 mph 78 % 0 in
21:29 59.4 °F 53.6 °F 30.1 in Calm   2.7 mph 78 % 0 in
21:34 59.4 °F 53.6 °F 30.1 in Calm   2.7 mph 78 % 0 in
21:39 59.4 °F 53.6 °F 30.1 in West 3.6 mph 4 mph 78 % 0 in
21:44 59.4 °F 53.6 °F 30.1 in Calm   4 mph 78 % 0 in
21:49 59.4 °F 53.6 °F 30.1 in Calm   4 mph 78 % 0 in
21:54 59.4 °F 53.6 °F 30.1 in Calm   4 mph 78 % 0 in
21:59 59.4 °F 53.6 °F 30.1 in Calm     78 % 0 in
22:04 59.4 °F 53.6 °F 30.1 in Calm     78 % 0 in
22:09 59.4 °F 53.6 °F 30.1 in Calm     78 % 0 in
22:14 59.4 °F 53.6 °F 30.1 in Calm   0.9 mph 78 % 0 in
22:19 59.4 °F 53.6 °F 30.1 in Calm   3.1 mph 78 % 0 in
22:24 59.4 °F 53.6 °F 30.1 in Calm   3.1 mph 78 % 0 in
22:29 59.4 °F 53.6 °F 30.1 in Calm     78 % 0 in
22:34 59.4 °F 53.6 °F 30.1 in Calm   3.1 mph 78 % 0 in
22:40 59.4 °F 53.6 °F 30.1 in Calm   3.1 mph 78 % 0 in
22:45 59.4 °F 53.6 °F 30.1 in Calm     78 % 0 in
22:50 58.3 °F 55.4 °F 30.1 in Calm     87 % 0 in
22:55 58.1 °F 55.4 °F 30.1 in Calm     87 % 0 in
23:00 58.1 °F 55.4 °F 30.1 in WSW 2.2 mph 2.2 mph 87 % 0 in
23:05 58.1 °F 55.4 °F 30.1 in Calm   3.6 mph 89 % 0 in
23:10 58.1 °F 55.4 °F 30.1 in Calm   3.6 mph 89 % 0 in
23:16 58.1 °F 55.4 °F 30.1 in Calm   3.1 mph 89 % 0 in
23:21 58.1 °F 55.4 °F 30.1 in Calm     89 % 0 in
23:26 58.1 °F 55.4 °F 30.1 in Calm     89 % 0 in
23:31 58.1 °F 55.4 °F 30.1 in Calm     89 % 0 in
23:36 58.1 °F 55.4 °F 30.1 in Calm     90 % 0 in
23:41 58.1 °F 55.4 °F 30.1 in Calm     90 % 0 in
23:46 58.1 °F 55.4 °F 30.1 in Calm     90 % 0 in
23:51 57.9 °F 55.4 °F 30.1 in Calm     90 % 0 in
23:56 57.6 °F 55.4 °F 30.1 in Calm   1.6 mph 90 % 0 in
Le Gheer Warneton
Courtoisie de Weather Underground - 2.25 mb

Mise a jour : 18/12/2017 21:33:12
Généré par Cumulus 1.9.4 (1099)